Flag for China Weather past 2 weeks in Kunming, Yunnan, China

Now
57 °F

Passing clouds.


Feels Like: 57 °F
Forecast: 56 / 66 °F
Wind: 3 mph from Northeast

Location: Kunming Airport

Current Time: Jul 6, 2015 at 2:56:38 AM

Latest Report: Jul 6, 2015 at 2:00 AM


Visibility: 4 mi

Pressure: 30.09 "Hg (23.98 "Hg at 1909m altitude)

Humidity: 100%

Dew point: 57 °F

Location of KunmingLocation

Historic Weather in Kunming — Graph

°F

Kunming temperature yesterday

Maximum temperature yesterday: 61 °F (at 3:00 PM)
Minimum temperature yesterday: 54 °F (at 6:00 AM)
Average temperature yesterday: 57 °F

Past Weeks' High & Low Weather Summary

 TemperatureHumidityPressure
High81 °F (Jun 23, 3:00 PM)100% (Jun 22, 7:00 AM)30.15 "Hg (Jun 22, 7:00 AM)
Low54 °F (Jul 5, 6:00 AM)48% (Jun 23, 3:00 PM)29.86 "Hg (Jun 23, 5:00 PM)
Average68 °F79%29.99 "Hg
* Reported Jun 21 1:00 AM — Jul 6 1:00 AM, Kunming, Weather by CustomWeather, © 2015

Note: Actual official high and low records may vary slightly from our data, if they occured in-between our weather recording intervals... More about our weather records

Advertising

Kunming weather history for previous 24 hours

 ConditionsComfort  
Time TempWeatherWind HumidityBarometerVisibility
1:00 AM
Mon, Jul 6
57 °FPassing clouds.8 mph94%30.12 "HgN/A
12:00 AM57 °FPassing clouds.3 mph94%30.12 "HgN/A
11:00 PM
Sun, Jul 5
59 °FPassing clouds.3 mph88%30.12 "HgN/A
10:00 PM59 °FPassing clouds.3 mph88%30.09 "HgN/A
9:00 PM59 °FPassing clouds.3 mph88%30.07 "HgN/A
8:00 PM59 °FScattered clouds.3 mph88%30.07 "HgN/A
7:00 PM61 °FScattered clouds.8 mph83%30.07 "HgN/A
6:00 PM59 °FMore clouds than sun.10 mph88%30.07 "HgN/A
5:00 PM61 °FDrizzle. More clouds than sun.8 mph88%30.07 "Hg5 mi
4:00 PM61 °FMore clouds than sun.13 mph88%30.07 "HgN/A
3:00 PM61 °FMore clouds than sun.13 mph83%30.07 "HgN/A
2:00 PM59 °FMore clouds than sun.15 mph82%30.07 "HgN/A
1:00 PM57 °FMore clouds than sun.15 mph88%30.09 "HgN/A
12:00 PM55 °FLight rain. More clouds than sun.17 mph100%30.09 "Hg5 mi
11:00 AM55 °FLight rain. More clouds than sun.15 mph94%30.09 "Hg5 mi
10:00 AM55 °FMore clouds than sun.20 mph94%30.09 "HgN/A
9:00 AM55 °FLight rain. More clouds than sun.15 mph94%30.09 "HgN/A
8:00 AM54 °FLight rain. Fog.15 mph100%30.07 "Hg2 mi
7:00 AM54 °FLight rain. Fog.17 mph100%30.07 "Hg2 mi
6:00 AM54 °FFog.17 mph100%30.04 "Hg2 mi
5:00 AM55 °FFog.15 mph94%30.04 "Hg3 mi
4:00 AM55 °FMostly cloudy.15 mph100%30.04 "Hg4 mi
3:00 AM55 °FLight rain. Mostly cloudy.15 mph100%30.04 "Hg4 mi
2:00 AM57 °FLight rain. Mostly cloudy.13 mph94%30.04 "Hg4 mi
Weather by CustomWeather, © 2015

See weather overviewHow to use our weather pages